THORAD AGENA D DEB, 4767

Orbit data source: Space-Track

THORAD AGENA D DEB, 4767 is space debris in SSO originally from a launch on Wed, 08 Apr 1970 UTC launched from the Air Force Western Test Range (AFWTR). Debris objects in space refer to the collection of defunct objects orbiting the Earth. Examples of debris include non-operational satellites, rocket bodies, and fragments generated from explosions, collisions, or faulty payload assembly.

Loading next visibility...
Identifier
4767, 1970-025DM
Orbit
SSO
Country
Flag of USUS
Related business
Manufacturer
Unknown
Mission
Spacecraft
Bus & Motor
Unknown
Mass
Unknown
Launch date (UTC)
1970-04-08 (56 years ago)
Launch vehicle
Unknown
Launch site
Air Force Western Test Range (AFWTR)
Object type
Payload
Rocket body
Debris
Shape & HBR
Unknown shape, 0.1 m
Radar Cross Section
Medium (>0.1 m² and <1 m²)

Expand to show TLE details & history
Last TLE update: 6 hours ago

TLE from 6 hours ago
0 THORAD AGENA D DEB
1 04767U 70025DM  26208.29344639  .00000262  00000-0  32928-3 0  9993
2 04767  99.9256 312.6127 0053408 135.0827 246.5428 13.73424601807685
Epoch: 2026-07-27T07:02Z
TLE epoch observation values (Epoch: 2026-07-27T07:02:33.768Z)
Latitude
20.7437°
Longitude
-101.78747°
Altitude
1,005.608 km
Speed
7.343 km/s
True Right ascension
20h 35m 19s
True Declination
20° 38' 02"
Sunlit
Object was in full shadow at epoch
Visualization orbit readout
Latitude
Unknown
Longitude
Unknown
Altitude
Unknown
Speed
Unknown
Apparent Right ascension
Unknown
Apparent Declination
Unknown
Sunlit
N/A
Visualization observer readout
Local Sidereal Time
02:21:14
Azimuth
Unknown
Elevation
Unknown
Doppler factor
Unknown
Orbital elements
Apogee altitude
1,023.907 km
Perigee altitude
945.261 km
Semi-major axis
7,362.721 km
Eccentricity
0.00534
Inclination
99.9256°
RAAN
312.6127°
Arg. of periapsis
135.0827°
True anomaly
245.98286°
Mean anomaly
246.5428°
Eccentric anomaly
246.26268°
Mean motion
3.43547 °/min
Orbital period
104.79 mins
BSTAR
0.00032928
Loading maneuver chart data...
Computing Atmospheric mass density...

Documentation

Showing up to 5 results
|